Total_Precipitation_Accumulation
1.85 2.27 2.40 2.45 2.76 3.03 3.20 3.17 3.40 3.80 4.07 4.46 4.46 4.68 5.12 5.41 5.51 5.62 5.63 5.56 5.49 5.49 5.34 5.17 5.26 5.10 4.86 4.62 4.55 4.53 4.44 4.12 4.05 4.07 3.62 2.96 2.53 2.32 2.16 2.17 2.22 2.04 2.03
1.70 2.12 2.32 2.62 2.89 3.06 3.30 3.41 3.55 4.05 4.55 5.11 5.64 6.03 6.41 6.42 6.50 6.41 6.30 6.00 5.83 5.75 5.58 5.59 5.42 5.19 5.05 4.78 4.56 4.52 4.44 4.11 4.12 4.14 4.07 3.31 2.77 2.18 1.72 1.83 1.88 1.85 1.94
1.77 1.99 2.21 2.50 2.80 3.04 3.28 3.43 3.78 4.45 5.31 5.89 6.36 6.90 7.22 6.91 6.63 6.34 6.25 6.15 6.08 5.99 5.87 5.85 5.58 5.35 5.08 4.72 4.43 4.30 4.22 4.09 4.11 4.01 4.11 3.55 2.87 2.35 1.91 1.68 1.60 1.67 1.81
1.73 1.94 2.12 2.34 2.64 3.02 3.19 3.43 4.07 4.78 5.45 6.07 6.70 7.27 7.54 7.56 7.31 6.75 6.27 5.84 5.56 5.37 5.28 5.25 5.10 4.91 4.63 4.37 4.06 3.96 3.91 4.04 3.90 3.86 3.65 3.38 3.01 2.77 2.38 2.00 1.75 1.71 1.72
1.66 1.85 2.02 2.21 2.33 2.69 3.19 3.56 4.17 4.87 5.52 6.29 7.06 7.50 7.73 7.70 7.32 6.53 5.75 5.19 4.90 4.63 4.42 4.36 4.26 4.11 3.92 3.75 3.66 3.68 3.62 3.56 3.42 3.32 3.32 3.33 3.27 2.93 2.60 2.26 1.99 1.90 1.78
1.49 1.59 1.82 1.96 2.23 2.59 3.01 3.52 3.86 4.47 5.17 5.80 6.43 6.66 6.81 6.73 6.30 5.89 5.40 5.00 4.51 4.06 3.72 3.57 3.46 3.29 3.16 3.16 3.18 3.24 3.22 3.23 3.21 3.12 2.99 2.96 2.94 2.76 2.67 2.40 2.15 2.12 1.95
1.41 1.63 1.91 1.90 2.17 2.48 2.87 3.36 3.78 4.15 4.67 5.24 5.75 6.00 6.17 6.08 5.59 5.16 4.74 4.33 3.83 3.45 3.14 2.94 2.87 2.77 2.71 2.72 2.85 2.95 2.90 2.84 2.87 2.85 2.77 2.70 2.61 2.55 2.55 2.61 2.41 2.14 1.88
1.50 1.60 1.73 1.82 2.14 2.39 2.66 3.09 3.45 3.82 4.05 4.31 4.71 4.96 5.13 4.99 4.67 4.22 3.74 3.45 3.15 2.82 2.62 2.49 2.42 2.34 2.26 2.24 2.41 2.56 2.64 2.62 2.64 2.62 2.70 2.61 2.46 2.44 2.41 2.46 2.56 2.45 2.17
1.42 1.55 1.71 1.82 2.02 2.35 2.75 3.02 3.14 3.35 3.56 3.83 3.94 3.93 4.02 3.93 3.71 3.43 3.12 2.83 2.55 2.24 2.10 2.07 2.07 2.03 1.99 2.04 2.20 2.28 2.25 2.31 2.34 2.42 2.52 2.50 2.44 2.43 2.37 2.44 2.55 2.63 2.51
1.44 1.53 1.65 1.82 1.89 1.95 2.33 2.74 2.85 2.97 3.07 3.18 3.24 3.14 3.20 3.08 3.04 2.87 2.62 2.35 2.16 1.93 1.84 1.80 1.83 1.87 1.84 1.88 1.99 2.08 2.10 2.06 2.03 2.15 2.31 2.36 2.35 2.46 2.51 2.60 2.63 2.64 2.64
1.58 1.61 1.63 1.65 1.77 1.91 2.09 2.34 2.61 2.66 2.72 2.87 2.86 2.76 2.81 2.78 2.76 2.62 2.42 2.28 2.22 2.06 1.90 1.77 1.83 1.84 1.76 1.76 1.81 1.78 1.83 1.90 1.94 1.97 2.05 2.13 2.20 2.33 2.37 2.44 2.46 2.54 2.57
1.49 1.49 1.47 1.44 1.52 1.76 2.00 2.17 2.33 2.37 2.44 2.53 2.59 2.67 2.70 2.62 2.50 2.31 2.20 2.09 1.99 1.84 1.75 1.69 1.76 1.74 1.60 1.58 1.55 1.49 1.55 1.65 1.75 1.82 1.88 1.93 1.96 2.03 2.00 2.09 2.14 2.18 2.27
1.64 1.52 1.44 1.43 1.45 1.59 1.72 1.90 2.15 2.26 2.30 2.29 2.25 2.42 2.48 2.36 2.22 2.09 2.03 1.94 1.80 1.75 1.77 1.75 1.73 1.70 1.58 1.49 1.43 1.41 1.40 1.37 1.45 1.57 1.62 1.67 1.71 1.67 1.62 1.67 1.68 1.79 1.91
1.77 1.55 1.50 1.46 1.48 1.57 1.60 1.66 1.81 2.00 2.14 2.23 2.38 2.43 2.36 2.23 2.13 1.93 1.73 1.63 1.57 1.63 1.71 1.66 1.58 1.50 1.41 1.33 1.35 1.40 1.37 1.32 1.31 1.32 1.36 1.37 1.33 1.30 1.34 1.35 1.41 1.56 1.82
1.67 1.55 1.55 1.58 1.58 1.54 1.54 1.57 1.72 1.81 2.03 2.15 2.16 2.12 2.05 1.99 1.96 1.90 1.74 1.56 1.45 1.41 1.50 1.46 1.42 1.36 1.25 1.17 1.19 1.25 1.24 1.25 1.21 1.19 1.17 1.12 1.11 1.14 1.12 1.05 1.17 1.41 1.68
1.58 1.55 1.51 1.60 1.54 1.47 1.43 1.40 1.54 1.58 1.72 1.86 1.86 1.80 1.78 1.83 1.78 1.75 1.64 1.54 1.44 1.38 1.40 1.39 1.30 1.18 1.01 1.02 1.01 0.98 1.03 1.16 1.22 1.19 1.09 1.00 0.95 0.93 0.94 0.95 1.03 1.18 1.32
1.73 1.77 1.82 1.83 1.66 1.52 1.45 1.48 1.54 1.57 1.62 1.69 1.64 1.64 1.64 1.61 1.60 1.46 1.41 1.45 1.48 1.40 1.33 1.24 1.15 1.04 0.96 0.92 0.88 0.91 0.98 1.08 1.17 1.21 1.21 1.04 0.87 0.95 0.98 1.00 1.04 1.06 1.12
2.05 2.07 2.04 1.89 1.71 1.59 1.55 1.57 1.54 1.56 1.64 1.62 1.55 1.49 1.49 1.43 1.41 1.42 1.41 1.40 1.40 1.35 1.30 1.19 1.07 1.00 0.91 0.89 0.88 0.89 0.90 1.04 1.10 1.11 1.13 1.14 1.09 1.02 1.06 1.03 1.05 1.07 1.11
2.03 1.96 1.91 1.81 1.68 1.56 1.51 1.49 1.50 1.46 1.44 1.40 1.36 1.28 1.30 1.36 1.37 1.35 1.42 1.40 1.31 1.26 1.19 1.11 1.08 1.04 0.92 0.85 0.82 0.86 0.94 1.04 1.02 0.97 0.94 0.92 0.93 0.93 1.01 1.09 1.18 1.17 1.13
1.66 1.73 1.76 1.68 1.56 1.44 1.37 1.37 1.41 1.38 1.32 1.28 1.27 1.18 1.18 1.24 1.30 1.32 1.35 1.27 1.22 1.18 1.06 1.01 1.05 1.04 1.00 0.86 0.76 0.82 0.85 0.92 0.92 0.92 0.88 0.84 0.78 0.75 0.74 0.85 1.07 1.20 1.13
1.41 1.43 1.60 1.66 1.48 1.26 1.21 1.30 1.31 1.28 1.15 1.13 1.19 1.18 1.15 1.16 1.17 1.19 1.23 1.20 1.15 1.15 1.14 1.12 1.12 1.12 1.05 0.90 0.79 0.77 0.75 0.78 0.83 0.86 0.85 0.82 0.71 0.62 0.63 0.73 0.91 0.99 0.98
1.29 1.29 1.44 1.43 1.27 1.15 1.19 1.26 1.25 1.13 1.05 1.12 1.23 1.21 1.18 1.07 1.05 1.19 1.23 1.18 1.16 1.11 1.16 1.16 1.15 1.14 1.10 0.94 0.82 0.75 0.71 0.73 0.78 0.83 0.82 0.77 0.69 0.60 0.63 0.68 0.79 0.84 0.96
1.15 1.16 1.24 1.25 1.16 1.12 1.17 1.22 1.18 1.08 1.13 1.21 1.25 1.27 1.18 1.14 1.12 1.16 1.18 1.13 1.09 1.01 1.01 1.03 1.05 1.03 0.96 0.89 0.81 0.75 0.70 0.69 0.71 0.72 0.72 0.69 0.70 0.71 0.79 0.84 0.85 0.92 1.12
1.06 1.06 1.15 1.15 1.10 1.02 1.01 1.04 0.98 0.98 1.13 1.26 1.22 1.20 1.20 1.19 1.14 1.09 1.04 1.02 1.00 0.93 0.87 0.89 0.91 0.87 0.84 0.77 0.68 0.65 0.63 0.63 0.67 0.70 0.76 0.82 0.89 0.91 0.93 0.98 1.06 1.12 1.20
1.01 1.04 1.14 1.13 1.00 0.92 0.88 0.88 0.93 1.02 1.16 1.19 1.13 1.09 1.10 1.07 1.04 0.94 0.86 0.83 0.76 0.68 0.66 0.66 0.67 0.65 0.66 0.66 0.61 0.57 0.59 0.57 0.61 0.69 0.82 1.00 1.08 1.09 1.06 1.04 1.07 1.12 1.13
1.00 1.06 1.05 1.01 0.93 0.83 0.80 0.83 0.88 0.91 1.05 1.07 1.03 0.99 1.01 0.98 0.91 0.87 0.80 0.73 0.60 0.55 0.50 0.47 0.48 0.49 0.55 0.56 0.48 0.48 0.51 0.52 0.62 0.72 0.95 1.10 1.14 1.15 1.04 0.99 0.97 0.96 0.97